User: anonymous   Login
Location: Mercogliano
(40.9167°N, 14.7333°E)
Time: 01:10:17
(UTC+00:00)
Language:

YAOGAN 1 - Orbit

View from above orbital plane
View from above orbital plane
View from above satellite
View from above satellite

Ground track
Ground track

The orbit data is extracted from the following two-line orbital elements,

1 29092U 06015A   20336.50289113 +.00000184 +00000-0 +29139-4 0  9998
2 29092 097.9276 359.6746 0001413 089.8956 270.2419 14.83107988789499
Epoch (UTC): 01 December 2020 12:04:09
Eccentricity: 0.0001413
inclination: 97.9276°
perigee height: 618 km
apogee height: 620 km
right ascension of ascending node: 359.6746°
argument of perigee: 89.8956°
revolutions per day: 14.83107988
mean anomaly at epoch: 270.2419°
orbit number at epoch: 78949

The dashed part of the orbit path shows where the satellite is in the earth's shadow,  

DLR